Accueil
METAR-TAF:

METAR-TAF

Aéroports :

Holbeach, Angleterre

RAF

latitude: 52-52N, longitude: 000-09E, altitude: 3 m

Observation

Le bulletin a été fait il y a 1 heure et 12 minutes, à 19:50 UTC
Vent 18 kt de sud-ouest
Température 13°C
Humidité 94%
Pression 1004 hPa
Visibilité 10 km ou plus
Nuages fragmentés à une hauteur de 1500 ft

METAR: EGYH 241950Z 23018KT 9999 BKN015 13/12 Q1004 WHT

Heure: 22:02 (21:02 UTC)


TAF: absent

Observations et prévisions météorologiques de plus de 4000 aéroports (messages METAR et TAF).

Les stations disponibles sont représentées par des disques jaunes et rouges sur la carte.

Passer la souris dessus pour voir le nom de la station.

Cliquer dessus pour voir les observations et prévisions météorologiques.

Pour changer de carte: cliquez sur les boutons verts avec une croix noire pour zoomer, sur le bouton vert avec un tiret pour effectuer un zoom arrière, ou sur les flèches vertes pour les cartes adjacentes.


METAR-TAF: